Regional Weather Roundup
Issued by NWS Northern Indiana

Home | Current Version | Previous Version | Text Only | Print | Product List | Glossary On
Versions: 1 2 3 4 5 6 7 8 9 10 11 12 13 14 15 16 17 18 19 20 21 22 23 24 25 26 27 28 29 30 31 32 33 34 35 36 37 38 39 40 41 42 43 44 45 46 47 48 49 50
000
ASUS43 KIWX 201500
RWRIWX

KIWX WEATHER ROUNDUP
NATIONAL WEATHER SERVICE NORTHERN INDIANA
1000 AM EST TUE FEB 20 2018

NOTE: "FAIR" INDICATES FEW OR NO CLOUDS BELOW 12,000 FEET WITH NO
SIGNIFICANT WEATHER AND/OR OBSTRUCTIONS TO VISIBILITY.

* THESE STATIONS ARE NOT UNDER NWS QUALITY CONTROL. THEY ALSO MAY NOT
  REPORT WEATHER SUCH AS PRECIPITATION OR FOG.

INZ001>027-201600-
NORTHERN INDIANA

CITY           SKY/WX    TMP DP  RH WIND       PRES   REMARKS
GARY*          LGT RAIN  63  61  94 S12G23    29.89F
SOUTH BEND     LGT RAIN  61  59  93 SW20G30   29.94R FOG
GOSHEN         RAIN      60  59  96 S15       29.97R FOG
MONTICELLO*    RAIN      62  60  95 SW14G21   29.97S
WARSAW*        HVY RAIN  59  59 100 S8G16     29.99R
AUBURN*        LGT RAIN  59  57  94 S9        30.01R
FORT WAYNE     RAIN      61  58  90 SW10      30.02R FOG
PERU/GRISSOM   LGT RAIN  63  63 100 SW14      30.01R

$$
INZ028>050-201600-
CENTRAL INDIANA

CITY           SKY/WX    TMP DP  RH WIND       PRES   REMARKS
LAFAYETTE      HVY RAIN  63  61  93 SW12G24   29.98S FOG
KOKOMO*        LGT RAIN  64  60  87 SW17G29   30.02R
MUNCIE*        LGT RAIN  67  58  72 S22G32    30.01S
INDIANAPOLIS   PTSUNNY   69  58  67 SW22G38   30.03R

$$
MIZ043>046-050>051-056>058-064>065-071>073-077>080-201600-
SOUTHWEST LOWER MICHIGAN

CITY           SKY/WX    TMP DP  RH WIND       PRES   REMARKS
BATTLE CREEK   RAIN      59  58  96 SW20G29   29.91R FOG
BENTON HARBOR  CLOUDY    57  55  93 SW13      29.92R FOG
COLDWATER*     RAIN      60  60 100 S12G23    29.95R
HILLSDALE*     RAIN      55  54  94 S14G22    29.97R
HOLLAND        LGT RAIN  59  56  89 SW16      29.89S
GRAND RAPIDS   LGT RAIN  58  57  97 SW8       29.90R
KALAMAZOO      RAIN      59  57  93 SW10      29.93R FOG
THREE RIVERS*  HVY RAIN  58  58 100 SW10      29.94R

$$
OHZ001>008-015>018-024>025-201600-
NORTHWEST OHIO

CITY           SKY/WX    TMP DP  RH WIND       PRES   REMARKS
DEFIANCE       RAIN      60  56  86 S10       30.01S FOG
FINDLAY        PTSUNNY   66  56  70 SW26G36   30.03S
TOLEDO EXPRESS LGT RAIN  62  60  93 SW14      30.01S
TOLEDO METCALF TSTM      62  57  83 S13       30.03R
LIMA           CLOUDY    64  58  80 S22G33    30.04F

$$
AND FOR LAKE MICHIGAN COASTAL AND OPEN LAKE BUOY OBSERVATIONS

STATION/POSITION TEMP    WIND        PRES    VSBY  WAVE
                 AIR SEA DIR/SP/G                  HT/PER
                 (F)     (DEG/KT/KT) (MB)    (MI)  (FT/S)
CALUMET HARBOR    60     200/ 14/ 17 1011.1F
MICHIGAN CITY     61     190/ 20/ 28   N/A
BURNS HARBOR      60     210/ 18/ 26 1012.5S
SAINT JOSEPH      50     200/  7/ 11 1012.5

$$
&&



USA.gov is the U.S. government's official web portal to all federal, state and local government web resources and services.